Regional Weather Roundup
Issued by NWS

Home | Current Version | Previous Version | Text Only | Print | Product List | Glossary On
Versions: 1 2 3 4 5 6 7 8 9 10 11 12 13 14 15 16 17 18 19 20 21 22 23 24 25 26 27 28 29 30 31 32 33 34 35 36 37 38 39 40 41 42 43 44 45 46 47 48 49 50
000
ASUS43 KMKX 030421
RWRWI

WISCONSIN REGIONAL WEATHER ROUNDUP
NATIONAL WEATHER SERVICE MILWAUKEE/SULLIVAN WI
1100 PM CDT THU JUL 02 2015

NOTE: "FAIR" INDICATES FEW OR NO CLOUDS BELOW 12,000 FEET WITH NO
SIGNIFICANT WEATHER AND/OR OBSTRUCTIONS TO VISIBILITY.

WIZ001-002-006>008-014>016-023>028-030500-
NORTHWEST WISCONSIN

CITY           SKY/WX    TMP DP  RH WIND       PRES   REMARKS
SUPERIOR ARPT  CLEAR     61  57  86 SW5       29.94F
ASHLAND        CLEAR     63  55  75 SW6       29.95F
HAYWARD        CLEAR     59  55  87 CALM      29.99S
SIREN          CLEAR     60  56  86 CALM      29.98S
CUMBERLAND     CLEAR     59  55  88 CALM      30.00S
RICE LAKE      CLEAR     60  57  91 CALM      30.01S
CHETEK         CLEAR     60  58  93 SE3       30.00S
LADYSMITH      CLEAR     58  56  92 CALM      30.02R
EAU CLAIRE     CLEAR     61  56  83 CALM      29.98F
MENOMONIE      CLEAR     65  55  69 CALM      30.00R
NEW RICHMOND   CLEAR     62  54  75 CALM      30.00R
OSCEOLA        CLEAR     63  56  78 CALM      30.01S
$$

WIZ003>005-009-010-017-018-030500-
NORTH CENTRAL WISCONSIN

CITY           SKY/WX    TMP DP  RH WIND       PRES   REMARKS
MANITOWISH WTR CLEAR     58  57  97 CALM      29.99F
ARBOR VITAE    CLEAR     59  55  86 S3        30.00S
WOODRUFF       CLEAR     59  55  86 S3        30.00S
RHINELANDER    CLEAR     61  51  70 SW6       30.01F
EAGLE RIVER    CLEAR     63  50  63 SW5       30.00S
LAND O LAKES   CLEAR     60  54  78 SW3       30.00F
PHILLIPS       CLEAR     60  55  82 CALM      30.00S
TOMAHAWK       CLEAR     55  52  90 CALM      30.01F
MEDFORD        CLEAR     58  52  82 S5        30.01F
MERRILL        CLEAR     54  52  91 CALM      30.02S
$$

WIZ029-030-035-036-043>047-030500-
CENTRAL WISCONSIN

CITY           SKY/WX    TMP DP  RH WIND       PRES   REMARKS
WAUSAU         CLEAR     62  53  72 S3        30.00S
MOSINEE        FAIR      55  54  94 S3        30.02F
MARSHFIELD     CLEAR     60  51  72 CALM      30.01F
STEVENS POINT  CLEAR     54  51  88 CALM      30.02F
WAUPACA        CLEAR     57  53  87 CALM      30.02S
WAUTOMA        CLEAR     55  53  93 CALM      30.02S
WISC RAPIDS    FAIR      56  51  84 CALM      30.02F
CAMP DOUGLAS   CLEAR     52  52 100 SE2       30.00F
$$

WIZ011>013-019>022-031-037>040-048>050-030500-
NORTHEAST WISCONSIN

CITY           SKY/WX    TMP DP  RH WIND       PRES   REMARKS
ANTIGO         CLEAR     56  51  85 CALM      30.02F
SHAWANO        CLEAR     62  50  65 CALM      30.00F
OCONTO         CLEAR     53  53 100 CALM      30.00F
STURGEON BAY   CLEAR     54  43  66 CALM      30.02F
GREEN BAY      CLEAR     56  52  86 SW3       30.01S
MANITOWOC      CLEAR     54  48  80 MISG      30.02S
APPLETON       PTCLDY    63  46  55 CALM      30.02S
CLINTONVILLE   CLEAR     55  50  82 CALM      30.01S
OSHKOSH        CLEAR     56  48  74 S5        30.01S
$$

WIZ032>034-041-042-053>061-030500-
SOUTHWEST WISCONSIN

CITY           SKY/WX    TMP DP  RH WIND       PRES   REMARKS
LA CROSSE      PTCLDY    63  57  81 E6        29.99S
SPARTA         CLEAR     53  50  90 CALM      30.02S
VIROQUA        PTCLDY    60  51  72 E3        30.01F
BOSCOBEL       MOCLDY    56  53  90 CALM      30.00S
PRAIRIE DU CHI CLOUDY    59  54  84 CALM      29.99F
PLATTEVILLE    CLOUDY    60  53  79 NE5       30.00S
$$

WIZ056-057-062-063-064-067-068-030500-
SOUTH CENTRAL WISCONSIN

CITY           SKY/WX    TMP DP  RH WIND       PRES   REMARKS
REEDSBURG      PTCLDY    57  54  88 CALM      30.00S
BARABOO/DELLS  PTCLDY    55  51  85 CALM      30.01F
LONE ROCK      PTCLDY    55  53  93 CALM      30.01S
MINERAL POINT  MOCLDY    63  50  63 CALM      30.00F
MADISON        MOCLDY    57  46  66 CALM      30.00F
MIDDLETON      MOCLDY    55  53  92 CALM      30.01S
WATERTOWN      PTCLDY    55  54  94 E3        30.01S
MONROE         CLOUDY    59  50  72 E5        30.00S
JANESVILLE     MOCLDY    55  54  94 NE5       30.00S
$$

WIZ051-052-058>065-066-070>072-030500-
SOUTHEAST WISCONSIN

CITY           SKY/WX    TMP DP  RH WIND       PRES   REMARKS
MILWAUKEE      MOCLDY    57  46  66 CALM      30.01F
WAUKESHA       PTCLDY    52  43  71 CALM      30.03S
MILWAUKEE/TIMM CLEAR     55  43  62 CALM      30.03S
RACINE         PTCLDY    56  46  69 N3        30.03S
BURLINGTON     MOCLDY    52  47  82 CALM      30.01F
KENOSHA        PTCLDY    53  47  79 N3        30.01F
FOND DU LAC    CLEAR     56  50  80 S5        30.02S
SHEBOYGAN      CLEAR     52  47  83 NW3       30.03R
WEST BEND      CLEAR     52  46  82 CALM      30.03S
JUNEAU         CLEAR     57  50  78 E5        30.03S
$$

LSZ147-162-030500-
LAKE SUPERIOR

STATION/POSITION TIME  TEMP    WIND        PRES    WAVE
                       AIR SEA DIR/SP/G            HT/PER
                 (UTC) (F)     (DEG/KT/KT) (MB)    (FT/S)
W MID LAKE BUOY  0350   50 39  220/ 12/ 12 1012.4F   0
DEVILS ISLAND    0400   67     220/ 13/ 16 1012.6F
SAXON HARBOR     0300   64      CALM  /  4 1013.9S
$$

LMZ867-665-643>646-030500-
LAKE MICHIGAN

STATION/POSITION TIME  TEMP    WIND        PRES    WAVE
                       AIR SEA DIR/SP/G            HT/PER
                 (UTC) (F)     (DEG/KT/KT) (MB)    (FT/S)
CHAMBERS ISLAND  0300   57     160/  2/  3 1015.9S
N MID LAKE BUOY  0350   57 49  220/  4/  6 1015.7F   0
NORTHPORT PIER   0300   59     210/  2/  4 1015.9S
ALGOMA LAKESHORE 0340             CALM       N/A
KEWAUNEE LAKESHO 0400   54      CALM  /  2 1015.4F
SHEBOYGAN LAKESH 0400   59      10/  3/  4 1017.0R
PORT WASHINGTON  0340   59     340/  1/  5 1017.3R
ATWATER BUOY     0400   60     360/  8/  8 1017.6F
MILWAUKEE LAKESH 0400   59     350/  4/  5   N/A
KENOSHA   LAKESH 0400   60      20/  8/ 11 1015.9F
$$

TC  - TEMPERATURE IN CELSIUS
VSB - VISIBILITY IN STATUTE MILES
WCI - WIND CHILL INDEX
HX  - HEAT INDEX




USA.gov is the U.S. government's official web portal to all federal, state and local government web resources and services.